Simultaneous Nadir Overpasses (SNOs) Predictions

Prediction of SNOs between GOES-16 and NOAA-20 Satellite Orbit:

Table of predicted SNOs for the next 14.0 days since TLE Epoch: 3/28/2025
Index Date Time (GOES-16) GOES-16 Lat,Lon NOAA-20 Lat,Lon Distance(km) Time Diff (sec)
1 03/29/2025 06:36:33 -0.05, -75.51 0.47, -77.85 267.35 80
2 03/30/2025 06:15:07 -0.06, -75.51 -0.55, -73.32 250.37 80
3 03/31/2025 18:37:00 0.05, -75.51 -0.66, -78.60 352.61 80
4 04/01/2025 18:20:53 0.06, -75.52 0.36, -74.06 165.52 80
5 04/03/2025 06:42:38 -0.05, -75.54 0.81, -79.32 430.92 80
6 04/04/2025 06:21:11 -0.05, -75.55 -0.22, -74.78 87.25 80
7 04/06/2025 18:24:18 0.04, -75.56 0.06, -75.53 4.10 80
8 04/09/2025 06:29:55 -0.03, -75.62 0.12, -76.24 71.02 80
9 04/10/2025 06:08:29 -0.03, -75.64 -0.92, -71.70 448.55 80
10 04/11/2025 18:30:22 0.03, -75.66 -0.25, -77.00 151.89 80
